Temp
9 9 9 9 9 9 10 11 15 18 18 18 17 16 16 17 17 17 17 17 17 17 17 18 18 17 17 17 15 16 16 15 16 17 19 23 24 24 24 24 24 23 23 24 25 26 26 27 27 27 27 28 28 28 28 28 28 27 29 29 27 28 28 29 31 30 30 30 29 28 28 29 28 28 28 28 29 29 28 29 29 30 30 30 30 28 27 27
8 9 9 9 9 9 9 13 16 18 18 17 17 17 17 17 17 17 17 17 17 17 17 18 18 18 17 17 16 16 15 15 17 20 22 24 24 24 24 24 24 23 24 25 26 27 27 27 27 27 28 28 28 27 27 28 28 28 30 29 28 30 30 31 31 31 31 30 29 29 28 29 29 28 28 28 28 28 28 28 29 29 29 29 29 28 27 27
8 9 9 9 8 8 11 15 17 17 17 17 17 17 17 17 17 17 17 17 17 17 17 18 18 18 17 16 16 16 15 16 21 24 25 25 24 24 24 23 24 24 24 26 27 28 28 28 28 28 29 29 28 27 27 27 28 29 30 29 29 31 31 32 32 31 31 30 29 29 29 29 29 29 29 29 28 28 28 28 29 28 27 28 28 28 27 27
9 9 9 9 8 9 13 16 16 17 17 17 17 17 17 17 17 17 17 17 17 17 17 18 18 18 17 17 17 15 15 20 26 26 25 25 24 24 23 23 24 24 25 26 27 28 29 29 28 28 29 29 29 28 27 28 29 30 30 30 31 31 31 32 32 32 31 30 30 29 29 29 29 30 29 29 29 28 29 30 30 28 27 27 27 28 28 27
9 9 9 9 9 10 13 15 16 16 16 17 17 17 17 17 17 17 17 17 18 17 17 18 18 17 17 17 17 15 17 24 28 26 25 25 24 24 23 23 23 24 25 27 27 28 29 29 29 28 29 30 30 29 29 29 30 30 30 31 31 31 31 32 32 32 31 31 30 29 29 30 30 30 30 30 30 30 30 31 31 29 28 28 28 28 28 28
9 9 9 9 9 11 14 15 16 15 15 16 17 17 18 18 18 17 17 17 18 18 18 18 18 17 17 18 16 15 20 27 27 25 24 24 24 23 23 23 23 24 25 27 28 28 28 29 29 28 29 30 29 29 30 30 30 30 31 31 31 32 31 32 33 32 32 31 30 30 30 30 29 29 30 31 30 31 31 31 31 30 29 29 29 29 28 28
9 9 9 9 9 12 15 16 16 15 15 16 17 17 18 18 18 17 18 17 17 18 18 18 18 17 17 17 16 17 23 28 26 24 24 24 24 24 23 23 23 24 26 27 28 28 28 28 29 29 29 29 29 30 30 30 29 29 31 31 31 32 32 32 33 33 32 31 31 31 30 30 29 30 30 31 31 31 31 31 30 30 30 29 29 29 29 29
9 9 9 9 9 12 15 16 16 16 16 16 17 17 18 18 18 18 18 17 17 18 18 18 18 18 17 16 19 23 27 28 25 24 24 24 24 24 23 22 23 25 27 28 29 29 29 29 29 30 30 30 30 30 30 30 30 30 30 31 32 32 32 33 33 33 33 32 32 31 30 30 30 30 30 31 31 31 31 30 30 30 29 29 29 28 29 29
9 9 9 9 9 12 15 16 16 16 16 16 17 17 18 18 19 19 18 18 18 18 18 18 18 18 17 16 21 27 27 26 24 24 24 23 22 22 23 23 24 26 27 28 29 29 29 29 30 30 30 31 30 30 30 30 30 30 31 31 32 32 33 33 34 34 33 32 32 30 30 30 30 30 30 31 31 31 31 30 30 29 29 29 28 28 28 28
9 9 9 9 9 12 14 16 16 16 16 17 17 17 18 18 19 19 19 19 18 18 19 18 18 18 16 18 23 27 26 24 24 23 23 23 22 22 24 24 25 26 28 28 29 29 29 30 30 30 30 31 30 30 30 30 31 31 31 31 32 32 33 34 34 34 33 32 32 31 30 30 30 30 30 31 31 31 30 30 29 29 29 29 29 29 29 29
9 9 9 9 11 13 14 15 15 15 16 17 17 18 18 19 20 20 20 20 19 19 19 19 18 17 17 20 25 27 25 24 24 23 23 23 23 24 25 25 25 27 28 28 29 29 30 30 31 30 30 30 30 30 30 30 31 31 31 32 32 33 33 34 34 34 33 32 32 32 31 30 30 30 29 30 31 31 30 30 30 29 29 29 29 29 29 29
9 9 9 10 12 13 14 15 15 15 16 17 18 18 19 20 20 21 21 21 20 20 19 19 19 17 18 22 26 26 24 24 25 24 23 24 24 25 25 25 26 27 28 28 29 29 29 30 30 30 30 30 30 30 30 31 31 31 31 31 32 34 34 34 34 34 33 32 32 32 29 28 30 31 31 31 31 31 31 30 30 30 30 29 29 29 29 29
9 9 9 10 12 13 14 14 15 15 16 17 18 18 19 20 21 21 21 21 21 20 19 19 19 17 19 24 26 25 24 24 24 24 24 24 25 25 25 25 26 27 27 28 29 28 28 29 29 30 30 30 31 31 30 31 31 31 32 31 32 32 32 34 33 33 33 32 33 31 25 26 30 31 32 31 31 31 30 30 30 30 30 29 29 29 29 29
9 9 9 10 12 13 14 14 14 16 16 17 18 19 19 20 21 21 21 21 21 20 19 19 18 17 20 25 26 24 24 24 23 24 24 25 25 25 24 25 25 26 27 27 28 28 27 28 29 30 30 30 31 30 30 31 30 32 32 31 32 29 29 34 33 33 33 31 33 31 24 25 30 31 32 31 31 31 30 30 30 30 30 29 29 29 29 29
9 9 9 10 12 13 14 14 14 16 16 17 18 18 19 20 20 20 20 20 20 19 19 18 17 18 23 26 25 24 24 24 25 25 25 25 26 25 25 25 25 25 26 26 27 27 27 28 28 29 29 30 30 30 31 31 31 32 29 27 31 28 28 34 33 33 33 31 33 30 25 28 31 31 32 31 31 31 31 31 31 30 30 30 29 29 29 29
10 9 9 10 11 13 14 14 15 15 17 17 18 18 19 19 20 20 20 19 19 18 18 19 19 20 24 26 25 24 25 25 26 26 25 26 27 26 26 25 25 25 26 26 26 27 27 28 29 29 30 29 29 30 30 29 29 32 29 24 27 28 28 32 32 33 33 32 33 30 27 30 32 32 32 32 31 31 31 31 31 30 30 30 30 30 29 29
10 10 10 11 12 13 14 14 15 16 17 17 17 18 18 19 19 19 19 18 18 18 18 20 21 21 24 25 24 25 27 27 26 26 25 26 26 26 26 26 26 26 26 26 26 27 27 27 28 29 29 29 30 31 27 24 24 28 29 26 28 29 28 29 30 33 33 32 33 31 30 32 32 32 31 31 31 31 31 31 31 31 30 30 30 30 30 29
11 11 11 12 12 13 14 14 15 16 17 17 18 18 18 18 18 18 18 17 17 18 18 20 21 22 24 25 26 27 28 27 25 26 25 25 26 26 26 26 27 26 26 26 27 27 27 28 28 28 29 29 30 30 25 24 26 26 26 26 27 29 29 29 30 32 33 32 33 32 32 32 32 32 31 31 32 31 31 31 31 31 30 30 30 30 30 29
11 12 13 13 13 14 15 15 15 16 17 17 17 18 17 18 18 18 19 19 19 21 22 22 23 24 25 26 27 27 27 26 25 26 25 25 26 26 27 27 27 27 26 27 27 27 27 28 28 27 27 28 29 30 28 29 30 29 29 28 27 27 28 31 32 32 33 33 33 33 32 33 33 32 32 32 32 31 31 31 31 31 31 30 30 30 30 30
12 13 14 14 15 15 15 15 16 17 17 17 16 17 19 20 21 21 21 21 23 25 25 25 25 25 25 26 27 27 26 26 26 27 26 26 26 27 27 27 27 27 27 28 27 28 28 27 27 27 28 30 30 31 31 31 31 31 31 29 29 28 28 32 33 33 34 32 32 34 33 34 34 33 33 32 32 31 31 31 31 31 31 30 30 30 30 30
13 14 15 16 16 16 16 16 17 17 18 17 16 19 22 23 23 23 23 23 25 25 25 25 26 25 26 26 27 27 27 27 28 28 26 26 28 27 27 27 27 27 28 29 28 28 28 27 27 29 30 31 30 30 31 30 30 31 30 29 28 28 29 32 33 32 34 32 32 34 33 33 34 34 33 32 32 31 31 31 30 30 31 31 31 30 30 30
14 15 16 16 17 17 16 17 17 18 18 17 18 22 24 22 21 21 22 24 25 25 24 25 25 25 26 26 26 26 27 28 27 27 27 27 28 28 27 27 27 28 28 28 28 27 26 27 29 31 31 30 30 30 30 30 30 30 30 28 26 29 30 31 32 33 33 32 32 33 33 33 35 35 34 33 33 32 32 32 31 30 31 31 31 31 30 30
15 16 16 17 17 17 17 18 18 18 18 18 21 23 23 20 20 20 21 23 24 24 24 24 25 25 26 26 26 26 27 28 27 27 27 27 28 28 27 27 28 28 28 28 28 26 24 27 31 31 30 30 29 29 29 29 30 30 30 27 25 29 29 27 30 33 33 33 33 33 32 33 35 35 34 34 34 34 33 33 33 32 31 31 31 31 31 30
16 17 17 18 18 17 18 18 18 19 18 19 22 22 20 19 20 20 21 23 24 24 25 25 25 26 26 26 26 26 28 29 28 28 28 28 28 28 28 28 28 28 28 28 29 27 27 29 31 30 29 30 29 29 30 29 28 30 30 28 27 30 29 28 30 32 33 33 34 33 28 30 34 34 35 35 34 34 34 33 33 33 32 31 31 31 31 31
16 17 18 18 18 18 18 18 19 19 19 21 22 21 20 19 20 20 22 24 24 24 25 24 25 26 26 26 25 27 28 28 28 29 28 29 29 28 28 29 28 28 28 28 28 29 29 30 30 29 29 29 29 29 29 29 27 27 30 31 30 31 31 31 32 31 28 27 32 32 24 24 32 33 34 34 34 34 33 33 32 32 32 31 31 31 31 31
17 18 19 19 19 19 19 20 21 19 20 22 22 20 20 19 20 20 22 23 23 24 25 24 25 25 25 26 27 27 27 27 28 28 28 29 29 29 28 28 28 28 28 28 28 29 29 29 29 29 29 29 29 29 29 30 27 25 29 32 31 31 30 30 30 28 24 24 31 33 25 23 27 30 31 33 33 33 32 32 31 31 31 30 30 30 30 30
17 18 19 19 20 19 19 21 20 20 22 22 21 20 20 20 20 20 22 22 22 24 25 25 25 25 25 27 28 27 26 26 28 28 28 28 28 29 28 28 28 28 29 28 26 27 29 28 28 29 29 29 28 28 30 30 27 26 30 32 31 31 30 30 30 27 27 28 30 32 29 24 23 27 31 32 31 31 31 31 31 31 31 30 29 29 29 30
18 19 20 20 19 19 20 20 20 22 23 21 20 20 20 20 21 21 21 21 22 25 25 25 25 25 26 27 27 27 26 27 27 27 28 28 28 28 27 28 28 27 29 27 24 26 29 28 28 29 28 28 28 29 30 30 28 29 31 31 31 31 31 31 30 27 28 27 24 27 29 25 22 26 31 32 30 29 30 30 31 31 31 30 29 30 30 30
18 20 20 20 19 19 20 19 20 23 21 20 20 20 20 21 21 22 22 21 23 25 25 25 25 25 26 27 27 27 27 27 27 26 28 28 28 28 27 28 29 28 28 28 27 28 29 28 29 29 28 29 29 31 31 29 29 31 31 31 31 31 31 32 30 27 27 25 22 25 27 24 22 25 28 29 27 27 29 30 30 30 31 31 30 30 30 30
19 20 20 20 19 19 19 19 20 21 20 20 20 20 21 21 22 22 21 21 24 25 25 25 25 26 27 26 26 27 27 27 27 27 28 28 28 28 28 28 29 28 28 28 28 28 28 29 29 29 28 29 30 30 30 30 30 31 30 30 30 30 31 30 30 28 24 22 23 25 27 25 23 23 26 27 26 27 28 29 29 29 30 30 31 31 31 30
20 21 21 20 20 19 20 21 21 20 20 20 20 21 22 22 23 21 20 23 24 24 25 25 26 26 27 26 26 26 27 26 27 27 27 28 28 28 27 27 28 27 27 27 27 28 28 28 28 28 28 29 29 29 29 30 30 30 30 30 27 26 27 26 26 25 23 22 24 27 28 26 22 23 26 28 28 28 28 28 28 28 29 29 30 31 31 30
20 21 21 20 20 19 20 21 20 19 20 20 20 22 23 22 22 21 21 23 23 23 25 25 26 26 27 27 26 26 27 26 27 27 27 27 27 27 26 26 26 25 23 24 25 26 27 28 28 28 28 29 29 28 28 29 30 30 30 27 23 22 23 22 22 23 22 22 25 28 28 24 22 24 27 28 28 28 28 28 28 28 28 28 29 30 31 31
21 21 21 20 20 19 19 20 20 20 20 20 21 24 23 21 21 21 23 23 22 23 25 25 26 27 27 26 25 26 26 25 26 27 27 27 27 26 26 26 27 25 23 24 24 23 24 27 28 27 27 28 28 27 26 26 28 29 27 25 22 22 22 21 22 22 22 23 25 28 27 23 22 25 28 28 27 28 28 28 28 28 28 28 28 29 30 30
21 21 21 21 20 20 20 20 20 20 20 20 23 24 22 21 21 22 23 24 24 24 25 25 26 26 26 26 25 26 25 25 26 26 26 27 26 25 26 26 26 26 26 25 24 23 22 23 26 27 26 27 28 27 26 28 29 29 30 28 24 23 22 22 22 22 22 23 24 26 25 23 22 24 28 29 28 28 28 28 28 27 28 28 28 28 28 28
22 21 21 21 21 20 20 20 20 20 20 22 24 23 21 20 21 22 23 23 24 25 25 25 26 26 25 25 25 26 25 24 25 26 26 26 25 24 25 25 25 26 27 24 24 24 22 22 25 26 26 27 27 27 28 29 28 29 32 29 25 25 25 23 23 23 23 23 23 23 24 24 25 27 29 29 28 28 27 27 27 27 28 28 27 27 27 26
22 22 22 22 22 21 20 20 20 19 20 24 25 22 21 21 22 23 23 23 24 25 25 25 26 25 23 24 25 25 26 25 25 26 25 25 24 24 24 24 24 25 25 24 25 24 22 22 26 27 26 27 27 27 28 27 26 28 28 26 26 30 28 23 22 24 23 23 23 23 23 24 26 27 28 29 28 27 27 26 26 26 27 27 26 26 26 25
22 23 23 23 22 21 21 20 19 20 22 25 24 21 22 23 22 23 23 23 23 24 25 24 24 23 22 23 24 25 26 25 25 25 23 24 23 23 24 24 24 25 25 25 25 25 23 22 25 27 26 27 27 27 28 28 28 27 25 26 29 30 29 25 22 23 23 22 23 23 22 22 23 24 27 28 27 27 26 26 26 26 25 25 26 26 25 25
22 24 24 24 22 21 22 21 20 22 24 25 23 21 23 23 23 23 23 23 23 24 25 24 23 24 23 23 23 25 25 24 24 25 23 23 23 22 23 24 24 25 25 25 25 26 25 22 24 27 26 26 28 27 27 28 29 28 27 29 29 25 24 24 22 22 22 22 22 22 22 22 22 22 25 26 26 26 26 26 25 25 24 24 25 25 25 25
22 25 25 24 23 23 23 22 22 24 26 25 23 22 23 23 23 23 23 23 23 24 25 24 24 24 24 24 23 24 25 24 24 24 23 23 22 22 23 23 24 25 25 25 26 27 27 23 22 26 27 26 28 27 25 26 28 29 28 30 29 26 24 24 24 23 22 22 22 22 22 22 22 23 24 24 25 25 25 25 25 24 24 23 23 23 24 25
24 25 25 24 23 23 23 23 24 26 25 23 23 23 23 23 23 23 23 23 23 24 24 24 25 24 24 24 24 24 25 24 25 24 23 23 22 22 22 22 23 24 24 26 26 26 27 25 22 25 27 26 25 25 24 24 26 27 26 26 27 27 26 25 25 25 23 22 22 22 22 21 22 24 24 24 24 25 25 25 24 24 24 23 23 23 23 24
25 25 24 24 23 23 24 24 24 25 24 23 23 23 22 22 23 23 24 24 23 24 24 24 25 25 24 24 24 24 24 24 24 24 23 23 22 22 22 21 22 23 24 26 26 25 26 25 23 23 24 23 23 24 24 24 25 26 26 25 25 26 25 23 23 24 24 23 22 22 22 21 22 24 24 24 25 25 25 25 25 24 24 23 23 23 22 23
25 24 24 24 23 23 25 25 24 24 24 22 22 22 22 22 23 23 23 24 24 24 24 24 23 24 24 24 24 24 24 23 23 24 23 23 22 22 22 22 22 23 24 25 25 24 24 25 24 22 23 23 23 24 24 24 25 26 26 26 27 27 25 22 22 23 23 23 23 23 21 21 23 24 24 24 25 25 25 25 25 25 24 23 23 22 22 22
24 24 24 23 23 24 25 24 23 23 23 22 22 22 22 22 23 23 23 23 23 23 23 23 23 23 23 23 24 24 23 22 22 23 22 22 22 21 21 22 22 23 25 25 25 24 24 25 23 21 22 24 24 25 25 25 25 25 26 26 26 26 25 24 24 24 23 23 23 22 21 21 22 23 24 24 25 25 25 24 24 24 24 24 23 23 22 22
24 23 24 24 24 25 25 23 23 23 22 22 22 22 22 22 22 22 22 22 22 23 23 22 22 23 23 23 23 23 23 22 21 22 22 22 21 21 21 22 23 24 24 23 24 24 23 23 23 21 21 22 22 23 23 24 25 25 25 25 25 26 26 25 25 25 23 22 23 22 21 21 22 23 24 24 24 24 24 24 24 24 24 24 23 23 22 22
23 23 24 24 25 25 24 23 23 23 22 22 22 22 22 22 21 21 22 22 22 23 22 22 22 23 23 23 23 23 23 23 21 21 22 22 21 21 21 22 23 23 22 21 22 24 23 23 22 21 21 21 21 21 21 23 24 25 24 24 25 25 25 24 24 23 22 22 22 22 21 21 22 23 23 23 24 23 24 24 24 24 23 23 23 23 23 22
23 23 23 24 25 24 23 23 23 23 22 22 22 22 22 21 21 22 22 21 22 22 22 22 22 23 23 23 23 22 23 23 22 22 22 22 22 21 21 22 23 22 21 21 22 24 24 23 22 21 21 21 21 21 22 23 23 23 23 24 24 25 25 25 23 22 22 22 22 22 22 21 21 22 22 23 23 23 23 24 23 23 23 23 23 23 23 23
22 21 21 22 23 23 23 23 23 22 22 22 21 21 21 21 21 21 21 21 21 22 22 22 22 22 22 22 22 22 22 22 22 22 22 22 21 21 21 22 23 21 21 22 23 24 23 22 22 22 21 22 22 22 23 23 23 22 22 23 23 24 25 24 23 22 23 22 21 22 23 22 21 22 22 22 22 22 22 23 23 23 23 23 23 23 23 23
21 20 20 20 20 22 22 21 22 22 22 22 21 20 21 21 21 21 21 21 21 22 22 21 21 22 21 21 22 21 21 21 21 20 21 21 21 22 22 22 22 22 22 23 23 23 23 22 22 22 21 22 22 22 22 23 22 22 23 23 23 24 24 23 22 23 24 22 21 22 23 22 22 22 21 21 21 22 22 22 23 23 23 23 23 23 23 23
21 21 21 20 20 21 21 20 21 21 21 21 20 20 21 21 20 20 20 21 21 21 21 21 20 21 21 21 21 21 20 20 20 20 20 21 21 22 22 21 22 22 23 23 22 22 22 21 22 22 21 21 22 22 22 22 22 22 22 23 23 24 24 23 23 24 24 22 23 24 23 22 22 22 21 21 21 22 22 22 22 23 22 22 22 22 22 22
21 20 20 21 21 20 21 21 21 21 21 20 20 20 20 20 20 20 20 20 20 20 21 20 20 21 21 21 21 20 19 20 20 20 20 20 20 21 21 21 21 22 22 22 22 22 21 21 21 22 21 20 21 21 22 22 22 22 22 23 23 23 23 23 23 24 23 22 23 23 22 20 21 21 21 21 21 22 22 22 22 22 22 22 22 22 21 22
18 17 17 20 21 19 20 21 21 21 21 20 20 19 19 20 19 19 19 20 20 20 20 20 20 20 20 20 20 20 19 20 20 20 20 20 20 20 20 20 21 21 21 21 21 22 21 21 21 21 21 20 21 21 21 21 22 21 21 22 23 23 23 23 23 23 23 22 22 22 21 20 20 21 21 21 21 21 21 22 22 22 22 22 22 21 21 21
18 17 17 19 20 19 20 21 21 21 20 19 19 19 19 19 19 19 19 19 20 20 19 20 20 20 20 19 19 19 19 20 20 20 20 20 20 21 20 20 21 21 21 21 21 21 21 21 21 21 20 20 21 21 21 21 21 21 21 22 22 22 23 22 22 23 23 23 22 22 22 21 21 22 22 22 22 21 20 21 21 21 22 21 21 22 21 20
Height
807 805 804 802 800 799 798 797 796 794 794 793 792 791 790 789 788 787 786 785 784 783 783 782 781 781 779 778 777 777 776 776 775 775 772 766 764 765 766 767 768 770 773 776 778 779 780 781 782 781 782 782 782 783 783 782 781 786 790 791 791 793 794 789 787 787 786 786 787 788 787 790 795 792 788 787 790 792 794 793 790 789 787 788 792 797 803 808
806 805 804 802 800 798 797 796 795 794 793 792 791 791 789 788 787 786 785 784 783 782 782 781 780 780 779 778 777 776 775 775 775 771 767 763 763 764 764 766 768 769 772 775 775 775 777 779 780 780 780 782 783 784 787 783 782 788 789 790 793 791 786 780 780 781 781 784 785 786 787 787 790 791 788 793 798 796 800 800 794 795 794 793 796 801 805 808
806 805 803 801 799 798 797 795 794 793 792 792 791 790 788 787 787 785 784 783 782 781 781 780 780 779 779 778 776 776 775 775 772 766 762 761 761 762 763 766 767 769 772 774 774 775 776 776 778 778 779 782 783 785 789 786 783 785 787 793 791 784 780 774 776 777 777 780 784 786 785 786 786 785 787 793 799 798 801 800 797 802 802 799 799 802 806 808
806 804 802 800 799 798 796 795 794 793 792 791 790 788 788 786 785 784 783 782 781 781 780 779 779 779 778 777 776 776 775 774 767 760 760 760 760 761 763 765 767 770 773 774 775 775 775 776 776 776 780 782 781 783 789 786 783 783 785 790 785 780 781 776 773 774 774 777 782 784 785 788 784 781 787 791 797 801 796 791 792 799 801 800 800 802 806 808
805 803 801 800 799 797 796 794 793 792 791 790 789 787 786 785 784 783 782 781 780 780 779 778 778 778 777 776 776 776 776 774 763 758 760 759 760 762 763 765 768 771 773 775 775 775 776 776 776 778 781 782 782 785 786 780 778 783 782 781 779 778 782 776 770 772 773 775 780 785 787 786 782 783 786 787 794 796 788 784 785 792 796 798 799 801 804 808
804 802 801 799 798 797 795 794 792 791 790 789 788 786 785 784 782 782 781 780 779 779 778 778 778 777 777 776 776 776 776 772 761 759 761 760 761 762 764 766 769 772 774 774 774 775 775 775 778 782 783 782 785 786 783 776 777 786 781 775 776 775 780 775 768 772 772 775 782 784 782 780 785 788 784 784 789 785 779 779 783 787 792 795 798 800 803 806
803 801 800 798 797 796 794 793 791 790 789 788 786 785 784 782 781 780 779 778 778 777 777 777 777 777 776 775 776 775 772 765 760 761 761 761 763 763 766 768 770 773 773 773 773 774 775 777 780 780 783 784 784 783 781 778 779 787 784 777 776 773 775 772 767 770 770 776 778 776 779 782 789 789 783 784 785 780 778 779 782 786 790 795 798 800 802 805
802 801 799 798 796 795 793 791 790 789 788 787 785 784 782 781 779 778 777 777 776 776 776 776 776 776 776 776 775 771 766 762 761 762 762 763 764 765 768 770 772 773 772 772 772 772 774 778 778 777 782 782 779 780 780 781 782 785 784 777 775 773 771 767 766 768 769 772 772 775 782 784 784 784 784 785 782 779 779 781 784 788 792 795 799 801 802 805
802 800 798 797 795 793 792 790 789 788 787 785 784 782 781 779 778 777 776 775 775 775 775 775 776 775 776 775 772 769 764 762 762 762 763 765 766 767 769 770 772 772 772 772 771 772 774 777 775 773 779 778 777 780 778 784 785 780 779 776 775 774 769 766 766 766 769 770 771 779 784 782 779 780 785 782 779 780 779 783 786 789 794 796 799 801 802 805
801 799 797 795 794 792 791 789 788 786 785 784 782 781 779 777 776 775 774 773 773 774 774 775 776 775 776 774 771 768 763 762 763 763 765 766 767 769 770 771 772 772 771 772 771 772 772 774 772 770 775 775 776 778 777 782 780 775 777 776 775 773 767 765 766 766 767 769 772 779 784 782 776 782 792 783 776 779 781 787 788 791 795 796 799 800 802 805
800 798 796 794 793 791 789 788 786 785 783 782 781 779 777 776 774 773 772 772 771 772 774 774 775 775 776 773 770 766 762 763 764 764 766 767 768 769 770 771 772 772 771 772 772 772 771 771 769 772 777 776 776 779 777 775 774 773 776 777 774 770 766 764 766 766 767 771 770 773 781 783 779 785 792 783 775 779 783 788 790 792 795 795 798 800 802 805
799 797 795 793 791 790 788 787 785 783 782 780 779 777 776 774 772 771 771 770 770 771 773 774 775 775 775 773 767 763 762 763 765 765 767 768 769 770 771 772 772 772 772 772 773 772 773 772 771 776 778 775 778 782 777 770 772 774 774 780 777 769 770 766 766 765 766 773 766 771 791 793 787 784 780 776 775 778 783 788 790 792 794 796 797 800 802 804
798 796 794 792 790 788 787 785 784 782 780 779 777 775 774 772 771 770 770 769 769 771 772 774 774 775 776 770 762 761 763 763 764 766 767 768 770 771 772 773 773 773 773 773 773 773 775 774 773 774 774 776 779 777 773 769 773 776 774 780 778 775 777 767 765 766 767 773 762 777 811 806 791 782 773 774 776 779 786 788 790 791 793 795 797 800 802 803
797 795 793 791 789 787 785 784 782 781 779 778 776 774 772 771 770 769 769 769 769 771 772 773 774 775 774 766 760 762 763 763 765 766 767 768 769 771 772 773 774 775 775 774 774 775 776 775 774 774 773 774 773 771 774 774 776 777 776 779 777 782 783 767 765 768 771 774 761 781 816 807 790 781 772 773 775 780 787 788 789 791 792 795 797 800 802 802
795 793 791 789 787 786 784 782 781 779 778 776 774 773 771 770 769 768 768 769 770 771 773 774 774 774 770 763 760 762 763 764 764 765 767 767 768 770 771 774 775 775 776 776 776 776 777 776 776 778 776 773 773 779 781 778 776 776 784 788 780 782 783 770 767 767 773 775 763 782 808 796 784 778 772 773 775 780 786 787 788 790 792 794 796 798 801 802
794 792 790 788 786 784 782 781 779 778 777 775 774 772 771 770 769 768 768 769 771 772 773 774 773 773 769 762 761 762 762 762 762 764 766 767 767 768 771 773 774 776 777 776 777 777 777 777 776 776 776 776 779 782 782 783 781 777 784 791 784 782 781 776 773 765 768 774 770 784 798 787 779 776 773 774 776 780 785 786 788 789 791 792 795 797 799 801
793 790 788 786 784 782 781 779 778 777 776 774 773 772 771 771 770 770 770 771 773 773 774 773 771 772 768 761 762 762 759 760 762 763 765 767 767 768 771 772 773 775 776 777 778 777 778 778 778 777 777 779 777 779 788 793 788 780 782 785 781 780 780 780 780 769 766 774 776 781 786 783 779 776 776 776 777 781 785 787 787 789 791 791 793 795 797 800
791 789 787 785 783 781 780 778 777 775 775 774 773 773 772 772 772 772 772 773 774 774 775 772 771 773 769 761 760 759 757 760 762 763 765 767 768 769 770 770 772 774 776 779 778 778 780 779 779 782 783 782 779 781 791 789 779 779 783 785 782 780 779 780 781 773 769 775 778 780 783 781 778 777 778 778 777 781 784 785 786 787 790 791 792 793 795 798
790 787 785 783 781 780 778 777 776 774 774 773 773 773 773 773 773 773 773 773 773 771 771 769 767 768 765 758 755 756 757 760 762 763 764 765 767 769 769 769 770 773 778 782 781 780 780 782 784 786 786 784 782 779 779 775 771 772 776 780 781 780 779 776 776 772 769 776 778 779 782 779 777 778 779 778 776 781 783 783 785 787 788 790 792 792 794 797
788 786 784 781 780 778 777 776 774 773 773 773 774 774 772 771 770 770 770 770 767 763 762 762 760 761 760 756 754 756 758 760 761 761 763 764 766 767 768 769 771 774 777 779 781 778 777 785 788 785 781 778 777 773 770 773 773 773 774 778 778 778 778 775 776 771 766 777 779 775 777 777 774 775 776 776 778 781 784 785 786 786 787 789 790 791 793 795
787 785 782 780 778 777 775 774 773 773 772 772 773 772 768 767 768 769 768 764 760 758 759 758 757 759 758 756 756 756 757 759 759 759 763 763 763 768 771 771 776 778 775 773 777 776 779 786 783 776 772 770 772 772 773 778 779 778 777 779 780 778 777 774 775 771 767 775 778 774 777 777 773 771 772 775 779 782 782 783 786 786 786 787 789 791 792 793
785 783 781 779 777 775 774 773 772 772 772 772 772 769 766 768 770 770 769 765 759 757 759 758 758 759 757 757 757 756 757 760 761 760 761 762 763 767 771 772 776 776 772 772 778 783 786 784 773 768 767 769 773 774 777 781 780 781 778 779 782 777 775 777 775 771 769 774 776 776 779 776 770 767 769 771 774 776 775 775 779 782 785 786 787 789 790 793
784 781 780 778 775 774 772 771 772 772 772 772 770 768 768 771 770 770 770 767 761 758 758 758 759 759 757 757 757 757 758 758 762 762 759 762 763 763 768 773 773 772 773 776 779 785 788 778 765 765 768 773 779 778 780 782 781 781 778 780 781 775 778 782 778 774 772 772 774 777 779 774 769 769 768 767 767 767 767 768 771 775 781 783 783 786 788 792
783 780 779 777 774 773 771 771 772 771 772 771 770 770 771 771 770 771 769 765 762 758 756 757 757 756 756 756 755 757 757 754 756 759 757 760 762 763 766 768 770 773 775 774 774 778 778 767 761 767 772 775 780 781 781 784 783 780 777 778 777 774 778 778 776 777 774 773 772 776 784 778 770 773 771 764 763 766 766 769 773 774 777 781 782 784 786 788
781 779 778 776 775 773 771 772 771 771 772 770 770 771 771 771 770 770 769 765 763 759 755 757 756 756 754 755 756 754 754 755 754 754 755 756 759 764 765 763 767 774 774 773 774 774 771 764 764 772 775 774 780 782 781 781 782 780 777 775 773 775 779 777 778 781 782 784 775 775 795 791 773 775 777 769 768 771 771 774 781 781 780 783 785 786 786 786
780 778 777 775 774 773 772 771 770 772 771 768 771 771 770 771 768 770 770 764 762 760 758 758 758 757 755 755 755 752 758 762 755 752 755 756 755 759 766 765 765 770 769 770 774 770 767 766 768 773 776 777 781 781 778 777 781 782 774 770 773 777 781 780 781 784 787 787 775 772 792 795 785 787 786 779 778 778 779 781 784 785 784 785 788 789 789 788
779 777 776 775 773 773 771 769 770 771 768 768 771 770 770 770 767 770 770 769 767 761 758 758 757 757 756 754 752 756 765 762 756 756 755 757 756 756 766 769 768 769 764 770 780 772 766 771 772 773 776 779 782 780 775 775 782 780 770 769 775 778 781 781 782 785 780 778 777 773 778 788 797 799 788 782 786 787 788 787 785 784 783 784 786 787 789 789
778 776 775 774 772 772 771 770 771 768 767 770 769 770 770 768 768 769 772 780 774 758 755 758 756 755 754 753 752 757 759 754 760 764 754 756 759 758 766 767 766 769 765 772 783 772 766 774 774 774 778 780 779 774 770 775 780 774 768 771 773 775 779 777 780 783 777 784 791 779 774 789 801 797 786 785 793 797 796 792 788 784 781 783 785 784 784 786
777 775 774 773 772 771 771 771 770 767 769 770 768 770 768 767 769 767 772 782 771 755 756 757 756 756 754 755 756 756 755 754 761 762 754 757 758 758 765 762 759 767 768 769 773 768 767 769 766 770 776 776 772 767 766 775 777 769 768 773 773 775 777 776 781 781 782 798 799 779 775 791 803 799 791 794 801 803 800 793 790 787 783 781 780 781 782 782
776 774 773 772 771 771 770 770 769 769 769 768 768 768 766 768 770 772 780 779 765 758 758 756 757 757 756 760 761 758 758 759 758 757 758 759 757 758 760 758 758 766 770 768 768 768 767 764 763 768 773 770 767 767 768 772 770 768 772 776 778 779 778 779 779 777 793 810 794 774 772 782 802 809 800 801 804 803 800 796 794 790 785 782 778 778 780 781
774 774 773 772 771 771 769 767 768 769 767 767 768 765 766 768 766 777 784 771 761 762 760 758 759 757 756 760 764 762 761 762 759 759 762 761 760 762 764 765 765 769 774 773 772 772 770 770 770 771 771 769 770 772 772 770 768 771 775 778 785 789 787 790 789 789 809 811 784 770 769 777 803 813 802 801 801 797 800 799 797 794 789 785 780 776 776 779
773 773 773 771 771 770 768 767 767 767 766 766 766 763 767 772 771 776 775 764 766 767 760 760 760 756 757 758 763 763 762 766 763 760 762 763 765 767 770 771 769 777 783 777 775 776 773 773 773 773 771 769 774 777 776 775 772 774 775 778 792 802 805 809 807 805 809 797 774 766 772 788 810 810 800 802 800 796 797 796 795 794 791 788 783 778 775 775
773 772 772 771 770 769 768 767 765 766 765 765 765 761 765 777 782 776 765 763 770 766 759 761 759 756 758 762 766 763 763 770 767 764 765 764 768 772 772 770 768 777 779 772 775 781 781 779 774 776 775 770 773 776 780 781 776 777 776 779 792 801 814 821 812 806 803 788 772 767 776 799 814 808 800 802 801 796 794 793 793 792 790 788 784 779 777 776
772 771 771 770 768 768 767 765 764 764 764 763 763 762 769 782 782 772 765 765 766 761 760 762 759 758 759 764 768 764 767 774 768 766 768 766 770 774 773 773 772 772 768 767 773 776 786 792 781 778 778 773 773 775 776 773 771 773 767 770 781 783 795 808 800 798 797 786 780 779 784 798 811 811 801 797 798 796 795 793 792 791 788 786 784 781 782 781
772 771 770 769 768 767 764 763 764 762 763 762 759 764 776 783 777 770 770 769 764 762 762 760 758 762 766 766 767 764 766 775 771 767 771 772 776 779 778 778 777 773 770 772 773 770 780 790 781 777 777 774 776 775 771 770 772 768 761 769 778 769 771 781 778 776 776 780 787 787 787 791 798 803 796 793 798 797 797 796 794 794 790 786 787 786 787 787
772 770 769 769 768 766 764 763 762 761 762 759 760 771 779 780 777 773 772 769 766 765 763 762 760 764 771 770 770 768 765 770 772 772 777 778 780 784 783 782 780 778 776 774 773 774 783 789 781 777 777 775 777 774 770 775 777 770 770 777 772 761 765 776 780 772 767 783 790 786 798 804 800 802 797 795 802 801 800 801 798 798 794 790 791 790 790 791
771 770 769 769 767 765 763 762 761 761 759 756 766 779 778 775 776 774 771 769 768 766 763 766 769 768 771 772 772 771 768 771 771 773 781 782 784 789 786 783 781 779 779 776 774 773 779 788 783 778 782 778 774 774 772 771 772 773 777 773 764 767 771 775 787 787 782 792 790 783 801 811 807 811 806 800 806 806 803 803 801 801 801 797 795 794 794 793
770 768 767 768 767 765 763 761 761 759 756 759 774 782 775 774 776 773 772 770 768 767 762 766 772 769 767 771 775 772 769 773 773 774 782 783 787 792 788 785 782 778 778 778 776 772 773 787 788 778 782 780 772 776 778 771 768 772 773 764 767 783 785 781 789 794 792 795 795 791 796 803 809 817 815 810 812 810 805 806 806 806 806 804 802 799 796 794
769 766 767 769 768 765 763 763 760 756 756 765 777 780 775 776 775 772 772 771 769 768 764 765 769 768 766 768 774 774 770 773 774 775 783 786 790 792 789 789 785 780 779 775 775 774 771 784 791 780 777 779 775 777 781 778 771 769 770 766 768 776 779 779 777 778 782 787 799 806 804 809 820 821 818 818 816 812 811 811 810 810 810 809 807 805 800 796
767 766 769 770 767 766 764 761 759 758 764 772 777 778 776 776 775 772 771 770 770 769 768 767 766 768 773 772 772 775 774 774 775 778 783 787 791 792 790 791 788 783 781 775 775 776 772 778 788 784 777 779 784 785 787 788 780 775 775 774 775 772 771 776 771 767 773 779 792 806 810 819 825 818 817 820 816 814 813 812 812 812 811 811 810 809 806 802
766 768 770 768 767 767 763 763 765 766 771 776 777 778 780 779 776 774 771 769 770 769 768 769 767 768 774 775 775 776 777 778 778 780 785 788 791 793 791 792 792 787 783 777 777 780 778 776 781 784 781 785 794 794 791 792 788 783 779 776 778 776 775 788 788 774 771 775 777 788 809 827 824 815 816 817 815 814 812 811 812 811 812 813 812 810 809 806
767 771 772 768 768 766 762 768 773 771 774 781 782 782 782 781 778 776 773 771 770 770 768 771 773 773 774 776 776 776 778 783 784 783 788 790 792 795 793 792 791 788 784 782 782 783 782 778 781 788 788 790 796 794 791 792 790 786 784 781 780 777 776 788 792 779 774 777 773 778 809 829 821 814 817 815 814 814 812 812 812 811 812 813 813 812 810 808
771 774 772 769 768 764 765 774 777 775 780 784 783 783 782 782 780 778 777 775 774 773 774 776 777 778 779 778 778 778 781 788 791 789 791 794 795 797 795 791 790 787 783 784 784 784 783 783 789 797 797 792 792 791 789 790 788 787 786 785 784 782 781 783 783 777 775 780 779 786 815 832 822 816 817 814 813 813 813 814 814 814 813 811 812 812 810 810
774 774 770 769 769 764 768 777 780 781 784 783 783 785 784 784 784 783 781 781 779 778 779 782 780 779 781 779 779 782 784 790 796 794 792 795 798 798 795 791 789 787 786 789 788 787 788 789 792 800 805 803 801 798 796 792 789 789 790 790 789 787 786 785 783 779 781 785 782 786 812 830 823 818 817 815 815 815 814 815 815 815 815 813 812 811 811 812
774 775 772 770 769 767 772 778 778 781 785 784 785 786 785 787 788 786 785 785 783 780 782 785 783 780 781 781 781 784 782 785 795 797 794 796 797 797 796 793 790 789 791 794 791 787 792 794 795 799 804 807 809 808 803 795 790 791 794 795 793 790 790 789 786 786 792 794 787 787 808 826 824 820 820 818 818 819 817 816 816 816 816 815 814 812 811 812
776 779 778 774 771 771 777 778 777 781 784 785 789 789 788 791 790 786 786 787 786 784 784 786 784 782 783 783 786 789 785 783 790 794 795 796 798 798 797 794 793 794 796 796 791 789 793 797 799 801 801 803 809 809 802 794 793 798 799 798 796 793 790 788 787 788 788 792 799 801 809 823 826 823 823 821 820 821 820 818 819 819 817 817 816 814 813 812
779 786 786 784 782 779 780 781 781 783 785 786 793 794 792 792 792 789 789 789 789 788 787 787 786 786 789 788 790 794 793 789 791 795 796 798 798 798 797 794 794 797 797 795 791 790 795 800 802 804 804 803 805 806 801 798 800 803 803 802 799 795 792 791 793 793 786 793 812 813 806 816 825 824 825 826 824 824 823 821 820 821 820 819 817 816 815 814
785 790 790 789 791 788 787 788 787 786 786 788 792 795 793 793 796 796 793 791 789 788 790 793 793 790 791 792 792 796 798 798 800 802 800 799 800 798 797 796 796 796 795 794 793 793 797 802 803 804 807 806 804 804 803 802 804 805 803 804 802 797 797 798 799 798 794 797 810 810 804 813 822 823 827 829 826 825 825 823 821 821 821 820 819 819 818 817
786 790 790 789 792 792 792 792 790 789 791 792 794 796 796 796 799 799 796 794 794 792 791 797 799 795 793 793 793 798 803 802 805 807 804 802 802 800 800 801 799 796 795 796 798 797 800 805 806 805 809 811 809 808 807 805 806 806 805 804 802 799 798 799 799 798 799 802 803 803 808 819 823 824 828 829 826 824 823 823 823 822 823 823 822 822 821 820
789 792 792 789 791 793 792 791 791 791 792 794 798 800 799 798 801 801 798 798 800 799 795 798 801 797 795 795 795 801 805 802 803 807 805 805 805 802 803 804 801 799 799 800 801 800 803 810 809 805 809 815 812 809 809 809 808 808 807 805 803 802 802 801 801 800 803 810 808 807 819 830 828 824 825 827 826 825 823 824 824 824 824 824 824 824 824 823
795 796 795 792 794 797 795 793 792 792 794 796 800 802 802 802 803 803 802 800 800 801 800 800 802 800 799 800 801 804 805 802 803 805 803 804 805 804 805 805 804 804 804 804 805 802 804 810 811 808 811 815 813 811 811 810 808 810 811 808 804 804 804 803 803 802 804 811 814 815 822 829 827 823 823 824 825 826 826 826 825 824 824 825 825 825 826 825
797 797 795 793 796 799 796 794 793 794 799 802 803 804 804 804 803 803 805 804 801 802 802 801 802 802 803 807 809 807 805 804 804 804 803 803 803 803 805 805 804 806 806 806 807 805 805 809 811 810 812 813 812 813 811 811 815 814 808 804 804 805 805 806 807 806 804 806 812 814 816 820 822 820 819 820 823 827 830 829 828 826 825 826 826 825 825 826
Wind_Speed
16 16 15 15 15 15 14 12 11 10 8 8 9 10 11 11 10 10 10 11 11 10 10 11 11 12 12 11 9 11 13 9 8 8 11 9 8 10 9 17 24 29 27 21 19 17 15 13 13 14 12 8 5 4 5 4 3 4 3 2 2 5 5 6 7 6 4 5 9 11 9 7 10 8 6 6 6 8 7 6 7 6 6 11 18 24 27 26
17 16 16 16 15 14 14 12 11 10 9 9 9 10 11 12 12 11 11 11 11 10 10 10 11 12 12 11 10 11 11 9 12 12 13 9 7 10 14 20 26 31 27 22 21 19 16 13 15 14 10 6 5 5 4 4 5 4 3 1 3 5 6 7 8 7 4 3 8 11 9 6 8 10 8 8 9 9 8 8 8 10 11 15 21 25 26 26
17 16 16 16 15 14 14 13 11 10 10 10 10 11 12 12 12 12 12 12 11 10 9 10 11 11 11 11 11 10 9 10 11 8 4 4 6 12 20 24 27 31 25 20 20 18 15 14 17 14 9 6 5 6 4 4 4 3 3 0 5 5 5 7 9 7 6 4 6 10 9 6 8 9 8 7 10 9 8 9 10 12 14 17 21 24 26 25
16 16 16 16 15 14 14 13 12 11 11 11 11 11 13 13 13 13 12 12 12 10 9 9 10 10 10 10 10 8 8 10 4 3 4 3 9 17 24 25 27 29 21 17 17 14 13 14 16 12 8 7 6 7 6 6 4 2 3 1 6 3 3 7 8 7 6 4 5 7 9 8 8 8 7 8 9 8 7 9 11 14 18 20 21 23 25 24
16 16 16 16 16 15 14 14 13 12 12 12 11 12 13 14 14 13 13 12 11 10 9 9 9 9 8 9 9 6 6 5 3 6 6 1 13 21 24 25 27 24 17 16 15 12 12 13 13 10 7 6 7 7 7 8 4 2 3 1 2 2 3 5 6 6 5 3 5 6 8 7 8 7 8 8 4 3 6 9 12 15 18 20 22 23 24 23
17 16 16 16 16 16 15 14 14 13 13 13 13 13 14 14 15 14 14 12 10 10 9 8 8 7 7 8 7 3 6 2 5 4 4 4 15 21 24 25 25 18 15 18 16 13 13 12 11 9 7 6 8 8 6 7 5 4 4 1 1 3 3 4 5 4 3 1 4 5 5 6 9 7 8 8 2 5 7 11 13 16 19 21 22 22 22 22
17 17 16 16 16 16 16 15 14 14 14 14 15 14 14 14 15 15 14 11 9 9 8 8 7 5 6 6 4 5 7 2 5 3 3 8 14 20 23 24 21 16 17 19 16 14 13 13 12 9 8 7 8 8 4 6 7 6 3 1 2 3 4 5 4 2 1 0 3 4 5 7 9 6 7 8 5 7 10 12 14 17 21 22 20 19 20 21
18 18 17 17 16 16 16 15 14 15 15 15 16 16 16 15 15 15 14 11 9 9 8 7 5 4 4 4 4 6 5 3 7 5 6 11 14 18 22 20 17 16 18 18 16 14 12 13 13 8 9 6 5 8 5 5 8 8 6 2 3 4 4 5 4 2 1 1 3 6 6 7 7 5 7 8 8 9 11 14 16 18 20 19 18 18 19 19
18 18 18 17 17 16 16 15 15 15 16 16 17 17 18 16 15 14 14 12 9 9 8 6 5 3 2 4 7 5 2 5 6 9 10 14 16 18 18 16 17 17 16 16 15 14 11 11 12 7 6 5 4 7 8 6 5 5 5 4 5 6 5 5 4 1 2 3 5 8 6 7 7 5 6 9 9 11 13 15 17 18 19 18 16 18 18 18
18 18 18 18 17 17 17 16 15 16 16 17 17 18 18 17 15 14 14 13 10 9 7 6 4 3 3 6 8 3 5 5 8 13 14 16 17 17 15 15 17 16 15 15 15 14 10 8 9 4 5 4 5 5 8 6 1 1 4 5 7 8 6 5 4 1 3 6 8 8 7 8 9 6 5 9 11 12 14 16 17 17 18 17 16 16 17 18
18 18 18 18 17 18 18 17 16 17 17 17 17 19 19 17 16 15 14 12 10 9 8 7 5 5 6 8 8 1 6 4 10 14 14 15 17 16 13 15 17 14 13 12 13 13 10 7 6 5 3 2 5 5 6 5 3 2 5 6 7 8 5 4 2 2 4 6 9 8 7 8 8 6 6 11 13 13 14 16 17 16 16 16 16 15 14 16
18 18 18 18 18 18 18 17 17 17 17 17 17 19 18 16 15 14 11 9 9 8 8 8 7 5 6 8 5 2 6 5 11 14 14 14 13 11 10 14 14 12 12 11 12 12 9 7 8 8 1 1 5 4 4 4 4 5 6 5 5 7 5 2 0 4 5 6 9 7 5 8 8 6 9 13 13 13 14 15 15 15 14 14 15 14 12 15
18 18 18 19 19 19 18 17 17 18 17 16 17 18 17 14 13 10 7 7 8 8 9 8 7 4 7 5 1 4 4 6 11 14 13 12 9 8 8 10 10 8 9 9 10 10 7 7 10 9 2 3 5 1 0 5 6 7 6 5 5 6 6 4 3 6 6 5 9 8 3 5 8 7 10 13 13 14 14 14 14 13 13 13 13 13 12 15
18 18 19 19 19 19 18 18 18 17 16 16 17 17 14 11 10 8 6 6 7 9 9 8 7 5 7 1 6 4 5 7 12 14 13 12 10 9 8 8 7 6 6 5 7 8 5 5 9 8 4 6 2 1 4 6 6 6 5 5 5 5 6 7 5 7 6 5 9 8 3 4 8 9 11 13 13 15 13 14 14 13 12 12 13 13 13 14
19 19 19 20 20 19 18 18 17 15 15 15 15 13 10 8 7 5 5 5 8 9 9 8 6 5 6 2 5 5 6 7 12 14 13 13 11 10 10 9 7 6 6 4 5 7 5 5 8 7 5 5 3 4 7 5 7 7 5 7 6 5 5 8 6 5 3 5 9 7 2 5 9 11 12 12 13 14 13 14 14 13 14 13 13 13 12 14
22 21 21 21 20 19 17 17 16 14 14 14 12 7 4 5 5 2 5 7 9 10 8 5 6 7 6 2 7 6 7 6 9 12 12 12 9 9 11 10 8 7 7 4 4 7 6 6 6 5 5 5 6 7 6 5 7 7 7 7 7 7 5 7 7 3 2 5 8 8 3 4 9 10 11 11 13 13 12 13 14 14 14 13 12 12 12 13
23 23 22 21 19 18 16 16 15 14 13 11 6 2 7 9 9 10 11 11 9 9 5 3 4 7 4 4 6 7 8 6 7 11 12 9 6 10 13 10 8 9 8 5 5 8 8 6 5 4 5 6 6 7 7 7 8 7 8 7 6 8 6 5 7 5 3 4 6 8 4 4 9 9 11 11 12 12 11 12 14 13 13 12 12 12 13 13
24 23 22 21 19 17 15 15 14 13 12 7 1 7 10 11 12 10 9 9 6 5 5 4 3 5 3 6 6 7 9 8 8 10 12 9 7 11 12 9 10 11 10 7 7 9 8 6 5 6 7 6 6 7 8 7 7 9 10 8 6 7 6 4 6 5 4 5 4 6 5 3 8 8 9 11 11 11 10 11 12 12 13 13 12 12 13 14
25 23 22 20 18 17 15 14 13 12 9 2 6 8 9 8 6 4 5 6 5 5 2 3 6 3 2 8 6 7 8 8 8 10 12 12 11 10 8 9 12 12 10 7 8 10 8 6 7 7 8 9 9 10 8 2 4 7 10 10 7 7 7 4 7 4 2 4 5 6 5 5 7 8 9 10 11 10 9 10 10 11 12 12 12 12 13 14
26 23 22 20 18 16 14 13 12 9 4 5 8 4 3 3 3 5 6 7 8 7 6 3 6 5 1 6 6 5 7 8 7 9 13 14 13 11 8 9 10 9 8 8 9 10 9 7 8 8 9 11 11 11 7 1 2 3 6 9 7 6 6 6 6 4 0 4 4 4 4 5 5 8 9 9 10 10 10 11 11 11 12 12 12 12 13 14
26 23 21 19 18 16 13 12 9 5 1 7 8 5 1 2 3 0 1 6 7 7 8 5 5 7 3 1 1 1 5 8 8 10 13 14 14 11 8 9 9 8 8 8 8 8 9 9 10 11 9 10 11 9 6 3 3 3 4 7 7 7 5 6 4 5 1 5 4 4 5 5 5 6 9 9 11 12 12 13 13 13 13 12 13 13 13 12
26 23 21 19 17 15 13 9 4 1 3 6 8 5 3 6 4 3 3 5 4 4 6 5 5 6 5 5 3 3 4 8 10 11 12 13 13 10 8 9 9 7 8 9 8 8 9 9 10 11 8 8 9 8 7 7 6 5 6 6 7 8 5 5 5 5 2 4 3 5 4 5 5 5 9 11 11 11 13 14 13 14 14 13 13 13 13 13
25 22 20 18 17 15 10 3 2 3 3 3 4 1 4 4 5 3 5 6 2 4 5 5 6 6 6 5 3 6 8 9 11 11 12 13 11 8 8 10 9 8 9 10 9 8 8 9 10 11 9 9 9 7 9 8 7 7 6 6 7 8 7 5 7 6 2 3 1 1 4 4 6 5 7 10 11 10 12 13 12 13 13 13 13 13 13 14
23 21 20 18 15 13 5 5 4 2 2 1 0 4 4 5 5 4 5 5 1 3 3 2 3 5 4 2 4 8 7 6 7 11 14 14 9 6 8 10 9 8 9 12 12 9 7 5 9 12 11 11 10 8 9 7 7 9 8 8 6 7 7 4 4 4 4 4 4 4 5 5 6 7 7 8 10 10 9 10 9 9 10 10 11 13 14 14
22 20 18 16 12 8 4 5 3 2 3 2 2 4 4 6 4 5 6 5 2 4 3 3 3 3 1 2 5 6 5 5 3 8 13 11 8 7 7 7 7 7 10 13 11 9 6 5 9 12 12 12 10 8 10 8 6 8 10 11 7 3 6 5 2 3 6 6 6 6 7 5 6 4 1 2 6 6 4 5 5 5 7 8 8 10 12 13
21 19 17 14 10 5 1 2 3 1 5 3 3 4 6 8 4 4 5 4 4 4 4 5 3 3 3 4 6 4 7 6 4 6 10 6 4 5 5 6 5 6 9 11 7 6 5 7 10 12 12 13 10 8 9 9 6 5 7 11 10 5 6 7 5 5 6 4 5 5 8 5 7 5 6 2 2 5 3 2 4 6 7 8 7 7 9 11
20 17 16 13 9 6 2 1 3 2 4 2 3 5 7 8 3 4 5 4 4 2 3 4 1 3 3 4 6 5 6 9 7 6 6 3 3 5 6 7 6 4 6 7 6 5 6 9 11 12 12 12 9 7 9 9 8 2 7 7 9 9 9 9 7 7 6 1 2 6 8 4 5 7 7 5 6 8 5 2 2 5 7 9 9 9 9 10
19 16 15 12 7 5 3 1 2 2 1 4 3 6 8 4 4 5 6 2 4 1 2 4 2 1 2 4 6 3 5 11 8 6 6 4 4 5 7 8 8 7 8 8 5 7 8 9 11 12 11 9 8 8 8 10 10 1 7 4 5 6 9 9 8 8 5 3 5 8 7 6 4 7 6 7 8 8 7 6 5 2 2 8 11 11 13 13
17 14 13 11 6 3 2 0 3 1 2 3 4 6 6 3 4 5 5 1 3 1 1 3 3 4 5 7 5 3 5 4 3 6 8 6 3 4 5 4 7 9 11 11 5 6 8 5 6 11 9 6 8 8 7 10 9 1 4 4 3 4 6 7 8 7 5 5 8 9 9 7 3 6 4 5 7 8 7 6 7 7 5 4 10 12 13 13
15 11 10 9 5 2 1 2 3 2 2 4 4 5 4 4 4 6 4 2 1 3 3 1 3 6 9 10 5 5 6 4 5 8 7 5 5 4 1 1 4 6 10 11 5 4 7 3 3 5 2 1 3 3 4 9 8 2 5 6 5 5 5 5 6 5 6 7 10 10 10 10 3 5 5 6 7 8 7 6 7 7 7 6 5 10 12 11
11 7 8 8 5 2 4 2 3 3 5 4 4 5 5 5 5 5 3 2 1 5 5 3 5 7 12 11 7 6 8 7 6 8 7 6 6 6 4 3 5 5 8 9 5 6 9 7 5 2 4 3 3 4 5 9 8 5 7 7 7 6 5 5 5 5 6 7 10 11 9 7 4 4 6 7 7 8 8 7 9 8 8 8 6 5 9 10
6 4 8 10 8 4 5 4 4 7 5 4 5 5 5 5 4 1 3 2 1 3 2 3 6 8 10 9 7 8 8 7 4 5 6 6 4 4 2 1 3 5 7 7 7 8 8 6 6 5 3 1 5 8 7 8 9 8 8 8 7 7 6 7 7 7 7 6 8 11 8 3 3 6 6 8 8 8 8 8 9 9 9 7 7 5 5 9
2 4 7 12 11 7 7 8 7 7 4 4 5 5 5 3 2 3 3 1 1 3 1 2 6 9 11 10 8 8 8 6 4 5 5 4 5 5 4 5 4 4 5 7 9 8 6 6 6 6 4 1 4 6 5 7 10 10 9 8 7 7 7 9 8 7 8 6 6 9 8 5 6 7 7 9 9 9 9 9 9 9 9 8 7 7 1 5
3 3 6 12 15 13 13 9 5 4 4 6 6 6 5 1 4 1 3 5 5 3 3 4 7 10 10 8 6 5 6 6 4 5 6 4 5 5 4 6 6 6 4 6 7 6 7 7 3 1 2 2 2 2 4 3 10 11 9 8 8 6 6 7 7 8 9 7 8 9 7 6 8 6 6 8 9 10 10 9 10 9 9 8 8 10 9 5
2 1 5 10 14 15 15 8 3 3 4 6 5 3 1 3 4 2 4 5 3 4 6 6 8 10 9 7 6 3 2 4 5 5 5 4 4 4 3 4 7 6 4 4 5 3 4 6 5 4 3 3 2 3 6 4 7 8 7 8 7 4 4 4 5 7 8 8 8 7 4 5 9 8 7 7 9 11 11 12 12 12 11 11 11 12 11 10
3 4 4 7 11 14 13 8 3 3 5 6 3 3 4 4 4 5 4 4 3 3 6 8 7 7 8 6 6 5 3 4 6 5 6 6 7 7 5 5 6 6 5 3 3 3 2 6 6 4 3 3 4 3 2 3 3 5 7 7 2 3 3 4 2 4 7 7 8 7 7 8 9 8 7 7 9 11 12 14 15 15 14 13 13 12 11 10
3 4 3 9 14 15 13 8 4 4 6 4 2 5 3 4 5 6 5 5 4 2 5 7 3 2 7 7 6 8 8 7 5 4 4 4 5 7 5 4 5 6 6 4 1 1 1 5 6 3 4 5 2 1 1 2 4 3 5 5 3 2 3 4 3 5 8 7 7 8 10 10 8 5 5 6 9 12 13 14 15 15 16 14 13 12 12 12
3 4 2 12 17 15 12 7 4 5 5 1 7 5 3 5 6 6 6 6 4 5 5 4 1 2 5 8 7 8 7 6 4 5 4 3 3 5 5 3 5 6 6 5 2 0 2 3 7 3 3 5 3 3 4 3 1 3 2 1 2 4 6 5 4 6 9 8 6 9 11 8 3 3 5 6 9 11 12 13 14 15 16 14 13 13 13 12
5 5 2 13 16 11 10 7 5 6 3 3 6 5 4 6 7 7 6 5 4 4 3 2 2 1 2 5 8 6 2 4 5 5 2 1 2 4 5 2 3 6 6 6 3 1 2 2 5 4 3 5 5 3 3 4 3 2 3 3 3 4 3 5 5 5 7 8 7 8 9 6 4 5 7 7 9 10 10 12 13 15 15 13 12 12 13 12
4 3 3 13 14 8 7 7 5 2 2 4 5 4 4 5 7 9 8 5 3 4 3 3 2 3 4 4 6 5 2 4 5 3 2 2 3 4 5 4 4 6 5 4 2 1 3 4 3 6 6 5 3 2 3 2 0 3 5 5 5 4 3 3 5 4 4 6 7 9 8 6 6 5 6 7 8 8 10 11 11 13 14 13 12 12 11 12
4 1 4 14 15 7 7 5 1 4 4 5 6 6 5 4 5 8 8 7 5 5 5 5 4 5 6 5 5 5 4 5 5 4 4 3 2 3 5 6 6 6 5 2 1 2 2 3 2 5 5 4 4 5 4 4 5 3 2 2 2 4 4 5 7 5 4 5 4 7 8 7 6 4 5 7 7 8 9 10 11 12 14 13 12 12 12 12
3 1 4 13 14 7 6 0 4 3 4 5 5 5 4 4 5 6 7 6 6 6 6 6 7 6 5 4 5 5 5 5 4 4 4 4 5 6 6 7 6 6 5 0 4 4 3 2 1 3 4 5 7 4 2 3 3 3 3 3 3 3 4 6 6 6 6 4 2 4 7 7 5 5 6 6 7 8 9 10 10 11 13 13 12 13 12 12
3 4 4 11 12 7 4 3 5 3 5 5 3 5 5 4 6 7 7 7 6 5 5 6 6 6 5 5 5 6 5 4 4 5 6 7 7 7 6 7 5 5 4 0 3 2 3 2 2 4 4 4 5 3 0 1 3 3 2 4 3 3 3 4 4 3 6 5 4 5 6 7 6 6 6 6 8 9 9 10 10 10 10 11 13 13 13 13
4 3 4 10 10 6 3 3 4 4 6 5 5 6 6 7 9 9 9 9 6 4 5 6 6 6 5 4 4 5 3 2 4 4 4 5 5 5 6 7 5 3 4 4 3 2 2 1 1 3 5 5 5 5 4 3 3 1 3 4 4 3 3 4 3 4 5 2 4 6 6 7 7 7 6 7 9 9 10 10 9 10 10 10 11 12 12 13
1 1 3 8 8 3 2 4 3 4 6 6 6 6 5 6 7 8 9 9 8 6 5 5 5 5 5 4 5 5 3 2 3 3 3 5 5 4 6 7 7 7 7 7 6 4 1 2 2 3 4 4 4 3 2 2 3 2 3 3 4 4 3 3 3 6 6 1 3 5 7 10 10 9 8 8 9 9 10 10 10 10 10 10 10 11 12 12
1 1 3 4 6 6 5 4 3 3 3 3 4 5 5 5 6 6 7 7 8 8 6 5 3 3 4 4 5 6 5 5 4 5 6 5 5 4 5 6 8 8 6 6 6 4 0 2 3 4 3 2 3 4 4 2 2 2 2 3 4 4 3 3 4 5 5 5 2 4 12 15 12 11 9 8 8 8 8 9 10 9 10 11 10 10 11 12
2 2 3 2 3 3 4 4 4 3 2 2 2 3 4 4 4 5 6 5 6 5 5 6 4 2 3 3 5 6 6 7 7 6 6 5 5 5 3 4 7 7 4 3 5 3 2 2 2 3 4 5 6 6 4 3 2 2 2 2 3 3 3 2 1 1 1 4 5 9 14 16 13 11 9 7 7 8 8 8 9 9 9 10 10 11 12 13
2 2 3 3 2 2 3 4 5 3 3 3 1 1 3 4 4 4 5 4 4 4 2 4 6 6 5 3 2 4 5 6 7 5 4 4 4 5 3 3 6 4 3 2 4 3 2 1 2 2 4 5 5 5 3 2 2 2 1 2 2 2 2 2 4 5 3 1 8 12 14 13 12 10 9 7 5 6 8 7 8 8 9 10 10 12 13 13
2 3 3 2 2 3 4 3 3 3 4 3 3 3 3 5 5 5 4 3 3 5 4 4 7 6 5 4 1 3 4 2 4 4 3 3 3 2 2 3 3 3 2 2 4 2 3 1 3 3 5 5 4 3 2 1 2 2 2 2 2 2 4 5 5 7 7 9 11 14 13 11 10 8 8 6 4 5 6 6 7 8 9 10 11 12 12 13
3 3 2 1 3 4 3 3 1 2 4 2 2 4 4 4 6 5 4 4 3 4 4 5 7 6 6 5 4 6 6 5 4 5 2 1 2 0 0 1 2 2 1 1 2 1 2 1 4 4 4 5 3 2 2 0 2 3 3 3 4 4 5 5 6 8 9 11 12 13 12 9 6 5 7 6 4 4 4 5 6 7 8 9 10 11 12 12
3 3 3 1 3 2 2 3 1 0 3 2 2 3 3 4 6 5 5 6 5 5 5 5 6 5 5 7 7 8 7 6 6 6 3 2 2 1 2 2 1 1 1 1 1 1 2 2 4 5 4 4 4 3 2 1 3 4 5 6 6 5 5 5 5 4 5 10 12 11 9 7 6 6 6 6 5 4 4 5 5 5 7 8 9 10 11 11
2 1 2 3 1 1 1 2 1 0 3 4 4 3 2 4 4 1 3 5 5 6 6 4 3 3 4 6 7 6 6 5 6 5 3 3 3 2 2 2 1 2 1 0 1 1 2 2 4 5 5 4 5 3 1 3 6 5 5 6 6 5 4 5 5 4 3 6 7 6 5 7 6 6 5 5 5 4 4 4 4 5 6 7 8 9 10 10
Wind_Direction
342 341 339 336 334 333 334 335 337 339 341 340 338 334 331 330 331 328 323 318 317 313 310 315 317 320 319 318 317 318 327 312 285 249 235 259 243 228 207 180 169 162 162 159 157 155 158 168 165 170 176 178 197 184 177 202 235 244 251 249 89 72 64 42 42 57 70 122 140 156 170 160 148 151 147 156 152 127 123 123 124 122 117 121 126 136 144 150
342 340 338 335 335 335 335 333 334 340 342 340 335 331 329 327 329 326 320 316 313 309 303 305 310 317 322 318 314 321 325 287 265 257 244 264 251 212 181 175 171 164 163 165 167 166 166 166 166 176 182 177 174 169 183 198 219 242 272 305 81 62 68 54 41 54 51 93 140 159 175 176 151 149 165 171 149 141 139 138 141 128 120 122 132 141 147 152
342 339 337 336 336 336 335 333 335 340 340 337 333 331 328 326 328 326 320 316 311 305 296 296 303 315 322 313 313 325 320 284 265 246 252 274 216 185 170 174 173 165 167 172 172 172 171 165 168 180 189 189 179 173 186 198 212 229 257 162 90 63 69 62 38 42 46 76 149 159 170 180 152 151 174 172 152 160 161 154 154 140 138 140 143 147 150 155
342 339 338 337 337 336 334 333 334 338 338 335 334 330 328 327 326 324 321 315 309 300 289 289 297 312 320 309 317 333 302 275 257 102 15 315 184 173 169 173 171 166 172 176 174 178 173 165 173 188 200 199 182 182 192 195 206 200 242 59 86 53 42 50 32 35 46 83 154 157 167 175 159 162 175 170 160 170 176 162 155 149 150 150 149 152 155 159
341 339 338 336 335 335 333 332 333 334 337 334 333 330 329 327 325 324 319 313 306 294 285 281 291 310 310 308 327 333 279 260 95 63 3 285 170 168 171 173 168 167 176 175 171 173 170 169 179 192 206 200 177 193 201 193 223 252 235 324 62 336 8 21 16 33 34 85 141 160 172 163 159 175 183 179 156 124 157 154 147 150 155 155 154 155 158 162
339 337 336 335 333 334 333 332 332 332 334 332 331 331 328 326 325 322 316 312 301 288 280 274 288 304 299 315 337 295 263 301 68 37 19 143 165 167 173 171 163 167 177 172 169 172 173 176 185 192 205 206 187 198 197 187 225 252 213 194 295 316 343 336 354 30 12 74 141 164 162 151 165 178 185 183 91 68 126 137 140 148 155 157 157 158 160 164
338 336 334 333 332 333 333 331 331 332 332 331 329 329 328 327 323 318 313 307 295 284 271 268 280 293 299 319 326 245 249 358 73 71 91 146 164 166 173 168 162 171 178 176 177 179 179 181 190 194 200 206 199 197 177 182 213 245 243 212 286 308 313 315 341 5 322 278 145 150 145 166 179 165 175 177 113 97 122 131 139 145 152 157 159 162 162 164
336 335 333 331 331 331 331 330 332 332 331 330 328 328 328 325 320 314 308 302 289 276 259 259 267 276 299 299 279 237 224 75 99 131 126 143 154 161 165 164 169 176 178 181 180 181 182 187 193 194 204 205 196 194 182 192 211 230 248 271 294 292 298 305 310 315 268 204 149 154 161 174 177 154 169 169 127 122 127 132 140 143 152 159 161 163 162 164
333 333 332 330 329 329 329 329 332 332 331 329 328 328 327 322 318 309 303 300 283 265 249 241 242 254 279 263 267 241 145 73 126 148 137 142 145 152 158 164 177 176 178 183 182 185 184 193 196 197 229 212 179 198 198 213 208 210 244 286 297 288 295 295 295 297 184 173 154 164 171 161 166 166 164 158 135 132 136 137 143 148 155 161 163 165 163 165
333 333 331 330 329 330 330 329 331 332 329 328 329 327 325 321 314 305 300 296 276 252 230 221 218 219 239 251 257 226 90 82 151 149 144 147 145 151 160 167 175 178 180 180 185 191 191 201 197 203 276 229 196 208 199 217 261 162 262 286 283 281 280 275 289 272 171 163 167 173 160 151 169 186 167 153 146 141 144 145 148 153 158 163 164 165 166 167
332 331 331 331 331 332 330 329 331 330 327 329 329 326 324 319 310 303 299 287 264 238 213 202 192 196 237 256 260 202 83 114 157 153 154 153 152 158 163 168 175 183 181 179 190 195 201 207 192 200 258 205 190 204 200 223 301 281 275 282 259 259 252 258 281 192 174 161 176 176 148 153 175 194 165 152 155 152 151 151 155 159 160 164 165 164 169 169
332 331 331 331 333 332 328 330 331 328 327 328 328 325 321 316 308 303 297 274 247 221 196 187 183 191 246 256 261 69 81 141 160 157 158 154 158 162 161 170 179 190 184 186 194 193 206 204 201 213 220 114 190 192 190 206 260 262 267 273 240 234 216 193 97 176 172 161 174 168 141 167 183 181 147 147 157 157 156 156 160 164 160 165 166 164 170 171
332 331 330 332 333 329 327 329 329 327 328 329 328 324 318 314 308 304 292 263 232 199 185 182 176 194 253 252 121 101 101 138 159 159 159 157 154 153 162 173 180 193 191 196 192 186 206 206 212 222 234 249 209 118 143 195 239 251 237 249 237 213 181 119 118 170 159 153 172 163 124 169 180 168 142 148 161 161 161 161 164 166 162 166 167 166 171 172
331 330 330 332 331 328 327 327 327 328 328 330 328 322 319 315 308 299 274 242 201 180 176 171 169 206 250 235 87 145 141 127 159 164 165 164 150 145 156 171 181 188 190 204 189 178 198 209 219 226 233 256 261 15 238 202 216 233 209 220 235 208 151 102 130 173 154 153 182 176 138 146 160 157 147 153 164 165 165 164 166 167 165 169 168 172 174 173
333 332 330 330 329 329 328 325 326 328 328 331 328 323 324 326 320 296 243 201 172 164 161 165 181 225 246 172 107 156 153 144 169 172 174 170 157 150 155 164 172 175 177 188 188 180 189 200 213 218 200 231 264 227 224 202 198 216 211 202 215 205 139 108 129 177 149 155 192 203 178 134 140 144 147 157 167 170 169 165 168 168 168 171 170 176 177 174
337 335 332 330 330 331 330 326 327 328 329 332 328 329 5 21 23 80 142 144 145 144 152 175 195 237 268 138 123 158 172 165 168 170 177 179 172 152 147 153 153 163 169 160 180 182 188 205 212 223 201 198 222 215 210 209 196 203 218 207 199 202 174 126 128 140 112 151 184 206 223 97 114 134 146 160 169 172 173 167 169 170 169 173 172 176 178 176
339 337 335 333 333 334 332 329 329 329 332 334 330 49 83 76 83 95 108 121 128 139 181 247 212 237 271 105 139 175 171 150 148 163 171 181 180 147 143 150 149 159 161 145 168 176 184 206 204 215 220 209 209 208 208 208 195 190 205 210 195 203 206 151 136 128 147 188 184 195 222 75 98 129 147 161 173 176 178 172 171 171 171 173 175 178 178 179
341 337 337 337 336 337 335 332 331 329 334 341 127 114 99 96 97 96 108 122 129 160 220 257 227 239 205 159 166 151 140 131 134 155 161 161 160 151 150 148 143 153 158 151 166 176 182 194 199 197 201 208 202 204 211 207 204 196 192 202 193 192 208 160 126 119 170 203 186 189 212 130 118 130 147 164 178 183 181 177 175 174 175 175 178 181 179 180
341 339 340 340 340 338 335 332 328 328 340 70 134 116 109 111 109 137 166 163 189 211 236 184 197 265 139 154 140 111 125 133 137 151 157 157 155 156 155 148 150 159 166 167 171 181 185 185 202 205 196 200 200 206 216 231 243 211 188 204 207 191 195 133 96 96 174 204 187 188 201 183 158 146 157 170 178 189 187 183 183 179 180 179 180 183 179 182
343 343 343 343 343 340 336 330 325 330 346 144 149 150 163 178 195 186 188 210 233 261 299 234 216 271 83 128 118 118 141 152 167 163 158 160 158 157 154 157 167 175 182 178 166 176 190 194 198 204 203 195 196 210 219 11 288 223 179 196 206 198 177 128 107 101 187 236 190 186 205 195 180 159 163 172 177 192 194 190 191 186 185 185 185 184 179 183
346 346 346 346 345 340 336 328 323 331 3 159 179 227 285 348 304 35 190 230 228 251 271 262 259 276 284 10 61 146 167 171 172 155 158 166 166 164 158 171 183 187 194 179 152 164 193 211 204 201 207 189 188 206 211 198 208 217 205 191 198 209 166 121 121 106 144 244 165 162 218 192 184 169 159 172 187 196 199 195 194 191 189 186 188 186 179 181
347 347 348 349 347 343 336 329 328 36 85 154 196 236 37 33 347 345 312 262 202 213 250 245 262 272 265 268 280 269 223 172 153 147 159 172 182 184 164 181 200 183 178 176 160 168 196 220 205 191 192 173 176 193 202 210 210 214 220 207 206 208 175 131 141 124 146 254 150 144 221 188 172 172 161 179 197 200 201 199 194 190 190 188 187 185 180 180
348 348 348 350 351 345 337 355 81 91 97 158 215 210 51 15 334 279 263 275 197 169 217 223 236 237 221 223 210 220 209 171 159 155 166 182 194 198 173 187 209 183 172 185 189 183 197 216 193 173 172 170 171 182 195 207 216 220 216 216 207 190 201 187 156 152 175 261 275 152 236 200 164 173 179 192 204 206 203 202 199 191 190 191 186 184 182 180
348 347 348 352 355 353 11 98 85 82 112 216 42 64 28 340 323 262 254 276 226 147 184 212 239 234 216 161 179 210 201 169 167 153 168 191 181 176 192 198 207 191 182 196 203 202 205 195 166 167 178 183 181 179 194 206 208 216 218 228 215 175 215 236 135 169 204 209 238 238 233 208 177 187 189 189 200 209 206 200 202 198 191 192 189 186 185 182
348 346 347 351 358 14 82 115 82 105 176 195 101 57 354 337 317 258 264 263 180 135 160 168 204 218 163 148 192 218 184 149 133 139 167 198 179 169 197 200 211 206 187 193 205 212 204 153 157 176 185 190 192 185 198 214 209 210 214 226 238 181 211 236 161 208 220 191 187 222 234 189 161 166 86 160 195 196 202 194 198 213 197 187 195 194 190 186
347 344 345 347 357 15 141 143 63 137 218 182 84 22 340 334 307 233 265 252 159 127 161 166 186 167 156 184 171 192 191 152 79 127 162 197 196 194 196 177 216 225 181 182 209 220 177 154 177 188 184 189 200 197 193 209 226 206 186 207 229 235 219 224 220 220 227 189 148 212 243 183 134 80 42 31 146 129 127 164 179 210 202 180 191 202 198 197
346 342 340 341 349 356 337 19 49 220 217 112 50 345 338 328 267 197 252 233 144 97 156 146 163 152 149 175 166 196 185 136 113 133 154 177 185 217 217 177 193 209 166 178 210 207 160 163 185 191 191 192 201 204 179 195 234 175 119 178 214 221 222 220 222 224 233 281 147 205 240 219 138 84 72 88 86 91 87 54 154 201 200 183 190 195 195 206
345 340 339 344 349 355 13 21 284 232 111 39 350 330 341 323 206 213 256 207 105 54 161 113 85 148 144 168 188 217 124 133 151 127 122 162 177 221 222 190 192 176 167 197 192 155 168 184 186 186 197 201 206 210 173 189 232 136 105 173 198 206 219 211 216 223 221 255 224 196 209 227 159 100 89 95 77 62 49 27 21 2 225 194 199 199 191 198
343 339 343 351 356 9 49 229 271 295 43 342 317 336 331 259 213 242 251 148 99 195 148 101 139 164 165 166 177 178 130 143 167 112 135 167 169 240 241 205 200 163 167 215 224 141 166 197 192 189 200 207 206 207 175 193 225 128 124 190 171 178 207 204 213 214 198 229 230 191 185 214 159 92 75 71 53 26 22 20 14 2 337 234 208 207 198 195
341 345 358 360 10 18 304 212 206 242 284 294 324 328 280 222 229 238 206 123 101 144 133 167 167 153 167 168 154 152 143 105 102 126 147 154 152 198 259 20 217 170 170 211 238 117 127 122 178 198 240 313 200 183 184 212 225 175 172 190 176 175 188 197 212 211 198 215 225 204 193 218 214 81 56 43 33 12 8 10 10 359 341 328 239 211 204 201
342 1 23 16 26 352 293 191 153 263 275 293 311 276 238 217 242 240 159 87 76 132 152 175 150 161 178 170 141 139 132 101 124 157 154 151 157 163 159 180 201 183 174 189 179 134 145 158 154 106 14 348 207 186 195 217 222 207 199 192 179 172 174 190 191 204 215 212 215 202 186 216 227 86 59 42 32 17 13 9 7 0 349 346 322 245 211 206
348 40 39 23 21 1 323 328 309 286 275 285 281 252 229 215 223 122 100 170 205 118 144 147 140 164 169 148 129 139 130 103 117 144 138 150 144 117 122 193 193 186 178 175 165 154 155 154 134 119 83 33 217 200 180 195 207 207 202 192 185 174 175 191 184 194 214 210 202 189 174 170 92 75 53 40 33 23 21 14 10 4 359 359 345 316 231 210
33 74 40 21 15 3 332 316 296 282 269 262 252 237 242 222 142 55 66 129 57 55 71 126 144 160 152 134 123 117 110 100 107 120 117 131 135 116 75 39 354 267 205 165 165 164 149 136 148 164 145 43 259 215 181 184 195 202 203 193 193 186 180 191 188 192 206 199 173 173 182 174 117 83 54 50 39 30 30 22 20 15 9 14 11 7 349 209
105 78 27 15 11 1 345 332 298 272 250 240 232 226 239 149 92 49 57 63 61 79 118 143 149 153 145 134 126 108 95 90 102 137 145 150 145 133 107 65 11 311 250 176 167 175 165 148 143 144 98 10 313 294 320 245 191 195 206 204 210 212 198 196 195 192 193 179 155 162 187 181 142 104 64 64 51 41 41 34 32 28 23 26 26 27 30 30
160 5 6 15 8 356 349 346 308 269 231 233 234 219 215 84 75 27 52 44 40 107 131 160 159 148 132 115 120 105 42 91 111 119 118 118 101 87 80 45 19 346 278 210 166 175 168 121 80 57 42 357 2 7 332 290 191 183 204 218 222 236 233 219 205 201 197 178 161 165 159 116 121 116 91 73 58 50 46 42 40 35 31 34 32 29 25 22
230 291 349 14 0 351 351 348 315 262 231 246 235 95 59 54 25 0 21 350 329 89 146 165 165 153 142 134 132 117 80 117 138 121 91 91 79 58 44 35 19 356 321 262 175 180 170 104 90 115 107 36 12 26 351 295 228 179 195 210 189 16 295 256 197 205 216 192 161 149 119 111 131 126 94 65 55 51 45 42 41 38 34 34 34 29 22 18
261 277 350 9 358 356 356 346 312 247 241 267 72 76 46 44 15 352 347 329 322 292 209 167 152 190 150 143 136 129 132 136 151 151 118 116 83 37 25 47 25 6 355 323 226 201 230 116 107 124 110 87 43 11 84 322 296 232 195 183 112 49 284 269 220 192 206 197 164 157 146 147 171 150 84 52 44 44 44 44 42 41 36 34 35 30 24 19
286 255 34 16 360 356 1 357 308 257 249 81 90 82 42 46 25 0 343 325 306 272 251 156 99 280 163 146 130 131 158 167 163 150 122 121 94 18 0 45 36 25 6 312 264 154 288 133 121 118 108 122 160 223 178 157 274 300 299 158 182 217 210 219 230 198 199 198 165 157 155 147 154 104 69 45 37 38 43 44 41 41 38 35 34 28 26 26
281 246 89 18 356 356 11 358 283 261 257 91 95 90 56 54 37 19 3 329 308 295 294 98 97 240 143 141 133 125 174 171 151 149 115 85 94 32 4 12 24 24 5 318 299 113 271 229 139 127 130 155 182 228 197 158 166 231 255 221 226 251 219 208 224 212 208 199 161 158 167 141 73 60 57 49 45 41 43 45 42 43 41 38 33 26 25 28
289 265 75 14 354 356 353 315 275 292 63 72 71 71 54 49 42 32 22 5 347 338 3 74 120 140 109 110 128 114 75 112 126 128 88 85 101 70 34 3 343 354 352 324 346 62 246 244 151 133 156 189 183 51 27 32 112 210 221 208 198 227 257 247 231 232 252 222 177 178 181 131 81 65 63 63 60 49 49 52 49 48 46 43 36 30 27 26
275 263 56 6 352 334 299 287 7 45 78 84 61 60 46 15 21 34 31 29 37 31 37 57 73 109 118 111 114 112 102 110 111 100 100 94 70 73 42 1 336 328 319 280 82 24 278 242 182 151 167 172 102 63 35 12 355 331 279 255 227 228 228 224 216 212 260 275 221 188 167 118 92 86 82 76 69 60 56 56 56 53 50 46 38 32 30 28
274 40 26 354 346 317 285 32 78 43 72 82 52 44 34 352 2 25 25 26 45 49 47 57 58 66 92 89 96 116 109 95 91 92 99 81 50 47 26 350 324 313 314 4 88 20 324 265 149 121 106 98 103 88 30 12 342 324 353 0 313 267 243 233 222 203 208 250 269 171 135 114 109 101 93 87 76 69 62 56 56 56 52 49 41 33 32 29
28 47 18 355 345 305 278 93 100 77 75 90 85 57 45 24 23 29 26 23 32 43 49 57 49 48 64 71 97 117 95 69 78 85 98 96 69 42 15 350 324 303 311 86 102 19 303 257 123 110 100 107 131 141 94 317 265 243 60 25 326 300 290 285 306 277 212 200 210 184 136 122 129 111 97 96 86 77 70 58 53 53 50 48 44 37 34 29
43 46 32 13 357 297 268 72 95 101 93 106 107 86 72 49 31 28 35 36 31 39 60 59 44 50 66 66 88 95 59 60 98 88 93 104 80 38 16 7 355 353 10 19 18 352 313 264 194 171 163 165 175 182 183 197 227 193 73 33 359 357 316 278 298 277 233 209 253 227 160 128 134 127 112 103 91 78 72 61 52 51 46 42 41 39 38 32
356 85 58 34 28 27 49 38 46 99 106 103 88 78 84 75 44 29 38 46 40 36 62 67 47 62 81 78 86 78 37 53 108 120 112 106 101 65 29 21 26 40 45 23 346 320 337 17 313 246 210 194 190 185 180 172 157 127 69 41 18 4 322 272 237 231 218 182 293 241 148 125 134 135 122 109 96 82 74 66 56 52 49 43 39 37 39 37
314 52 52 56 58 66 79 54 23 61 84 80 71 54 57 86 75 37 29 44 48 43 57 67 49 77 95 92 99 87 61 68 102 142 136 118 112 79 30 32 52 48 38 17 346 318 137 64 5 336 338 13 67 68 29 12 145 134 74 49 26 7 334 276 245 231 195 154 120 125 132 134 139 136 122 106 94 82 73 68 60 52 48 48 44 39 42 41
18 33 19 35 70 74 93 70 26 33 29 359 36 45 42 75 83 47 31 37 46 40 53 58 41 53 85 91 104 90 75 86 101 118 122 112 113 102 53 44 58 39 0 358 356 324 196 126 57 33 38 43 60 72 49 22 77 86 71 59 35 25 0 302 283 38 148 174 143 129 139 142 137 131 119 103 91 79 70 64 62 55 46 48 46 44 45 43
38 59 24 331 333 42 66 46 22 37 55 42 71 89 65 72 70 56 50 47 40 15 17 72 62 55 65 58 80 105 103 109 108 107 112 114 128 138 123 79 58 28 337 25 26 334 272 139 113 113 96 77 67 71 63 63 97 89 67 67 56 56 60 61 70 48 7 163 145 150 154 141 131 129 117 98 82 77 73 63 60 57 49 45 44 43 43 41
66 89 63 329 348 48 56 40 11 41 61 54 66 63 53 68 75 66 39 23 54 29 3 75 78 60 65 50 32 116 103 92 117 119 113 114 132 163 143 113 81 48 2 43 53 346 300 108 134 155 128 105 87 83 73 69 144 149 136 124 121 101 91 88 90 85 79 93 124 146 143 121 117 124 115 108 90 77 80 71 62 57 47 42 41 40 39 38
38 57 49 73 83 59 51 53 8 68 78 52 71 70 47 52 71 76 39 7 48 57 29 74 79 60 66 71 82 99 65 29 78 109 111 129 145 227 1 76 74 65 31 44 72 331 288 163 160 186 162 132 124 123 111 140 190 165 150 154 160 145 128 120 111 109 110 110 121 137 135 123 130 134 124 125 110 81 77 69 62 56 47 41 40 39 34 32
19 30 326 322 81 30 2 68 32 94 85 57 67 80 67 66 70 78 64 34 35 64 63 73 79 64 70 79 81 84 67 43 60 77 61 41 52 39 33 25 352 349 64 85 107 263 262 170 172 214 212 158 151 173 157 164 207 203 185 175 174 168 152 136 123 123 135 134 138 151 153 145 159 165 150 141 124 92 67 58 52 50 46 38 35 39 35 27
358 85 297 283 91 26 316 99 88 51 68 53 59 65 66 90 88 59 74 64 51 58 57 52 67 82 90 85 71 57 48 42 47 52 46 34 39 49 53 47 349 315 344 110 210 236 244 190 177 215 229 158 149 181 189 192 217 216 180 165 167 160 139 128 121 108 125 148 158 172 150 127 143 173 172 150 126 96 68 54 39 33 38 35 29 32 32 27